Regional Weather Roundup
Issued by NWS

Home | Current Version | Previous Version | Text Only | Print | Product List | Glossary Off
Versions: 1 2 3 4 5 6 7 8 9 10 11 12 13 14 15 16 17 18 19 20 21 22 23 24 25 26 27 28 29 30 31 32 33 34 35 36 37 38 39 40 41 42 43 44 45 46 47 48 49 50

000
ASUS43 KLMK 290402
RWRKY
KENTUCKY REGIONAL WEATHER ROUNDUP
NATIONAL WEATHER SERVICE LOUISVILLE KY
1200 AM EDT MON AUG 29 2016

NOTE "FAIR" INDICATES FEW OR NO CLOUDS BELOW 12,000 FEET
WITH NO SIGNIFICANT WEATHER AND/OR OBSTRUCTIONS TO VISIBILITY.

KYZ001>023-026-027-061>063-070>075-290500-
WESTERN AND SOUTH CENTRAL KENTUCKY

CITY           SKY/WX    TMP DP  RH WIND       PRES   REMARKS
PADUCAH        CLEAR     75  72  90 CALM      30.12R
HENDERSON      PTCLDY    79  72  78 SE3       30.14S
OWENSBORO      PTCLDY    79  70  74 CALM      30.16R
HOPKINSVILLE   CLEAR     77  70  77 E5        30.13F
BOWLING GREEN  CLEAR     73  70  90 CALM      30.14F
GLASGOW        CLEAR     70  70 100 NE3       30.16S
$$

KYZ024-025-028>034-038-045-046-053-290500-
NORTH CENTRAL KENTUCKY

CITY           SKY/WX    TMP DP  RH WIND       PRES   REMARKS
LOUISVILLE/SDF CLOUDY    77  68  73 CALM      30.18F
LOUISVILLE/LOU CLOUDY    75  68  78 CALM      30.19F
FORT KNOX      PTCLDY    72  69  88 N3        30.18R
$$

KYZ035>037-039>044-047>052-055>060-089>105-290500-
NORTHEAST KENTUCKY

CITY           SKY/WX    TMP DP  RH WIND       PRES   REMARKS
LEXINGTON      MOCLDY    72  68  87 NE8       30.20F
COVINGTON      CLOUDY    71  70  96 SE5       30.19F
FRANKFORT      CLOUDY    73  68  84 N6        30.18F
$$

KYZ054-064>069-076>088-106>120-290500-
SOUTHEAST KENTUCKY

CITY           SKY/WX    TMP DP  RH WIND       PRES   REMARKS
JACKSON        CLEAR     73  67  81 CALM      30.22R
LONDON         CLOUDY    70  66  87 NE3       30.20R
SOMERSET       MOCLDY    70  70 100 CALM      30.21R
MIDDLESBORO    CLEAR     70  70  99 CALM      30.20S
MONTICELLO     MOCLDY   N/A N/A N/A NW7       30.20R
$$





USA.gov is the U.S. government's official web portal to all federal, state and local government web resources and services.